| time (UTC) | temp F | wind direction | speed MPH | gust MPH | rain 1hr in | rain 24hr in | rain mn in | humidity % | barometer mb |
| 20260504204517 | 75 | 38 | 2.0 | 7.0 | 0.00 | 0.00 | 0.00 | 27 | 993.5 |
| 20260504203017 | 75 | 55 | 3.0 | 10.0 | 0.00 | 0.00 | 0.00 | 27 | 993.6 |
| 20260504201517 | 75 | 53 | 3.0 | 8.0 | 0.00 | 0.00 | 0.00 | 26 | 993.9 |
| 20260504200037 | 75 | 70 | 2.0 | 7.0 | 0.00 | 0.00 | 0.00 | 28 | 994.1 |
| 20260504194517 | 75 | 61 | 2.0 | 7.0 | 0.00 | 0.00 | 0.00 | 28 | 994.3 |
| 20260504193018 | 74 | 47 | 2.0 | 7.0 | 0.00 | 0.00 | 0.00 | 29 | 994.6 |
| 20260504191517 | 74 | 63 | 2.0 | 8.0 | 0.00 | 0.00 | 0.00 | 29 | 994.9 |
| 20260504190017 | 74 | 42 | 2.0 | 8.0 | 0.00 | 0.00 | 0.00 | 29 | 995.1 |
| 20260504184517 | 74 | 48 | 3.0 | 7.0 | 0.00 | 0.00 | 0.00 | 29 | 995.3 |
| 20260504183016 | 73 | 65 | 2.0 | 7.0 | 0.00 | 0.00 | 0.00 | 30 | 995.5 |
| 20260504181537 | 73 | 73 | 3.0 | 8.0 | 0.00 | 0.00 | 0.00 | 30 | 995.7 |
| 20260504180016 | 73 | 46 | 3.0 | 8.0 | 0.00 | 0.00 | 0.00 | 29 | 995.9 |
| 20260504174517 | 73 | 47 | 2.0 | 8.0 | 0.00 | 0.00 | 0.00 | 30 | 995.9 |
| 20260504173017 | 72 | 41 | 2.0 | 9.0 | 0.00 | 0.00 | 0.00 | 31 | 996.1 |
| 20260504171516 | 71 | 61 | 2.0 | 5.0 | 0.00 | 0.00 | 0.00 | 31 | 996.2 |
| 20260504081516 | 51 | 113 | 0.0 | 2.0 | 0.00 | 0.00 | 0.00 | 51 | 998.9 |
| 20260504050017 | 49 | 55 | 1.0 | 3.0 | 0.00 | 0.00 | 0.00 | 53 | 999.4 |
| 20260504044517 | 49 | 46 | 1.0 | 3.0 | 0.00 | 0.00 | 0.00 | 52 | 999.3 |
| 20260504043017 | 49 | 63 | 1.0 | 3.0 | 0.00 | 0.00 | 0.00 | 53 | 999.3 |
| 20260504041517 | 47 | 34 | 1.0 | 3.0 | 0.00 | 0.00 | 0.00 | 55 | 999.2 |
| 20260504040017 | 46 | 58 | 0.0 | 2.0 | 0.00 | 0.00 | 0.00 | 58 | 999.0 |
| 20260504034516 | 46 | 58 | 0.0 | 1.0 | 0.00 | 0.00 | 0.00 | 59 | 998.9 |
| 20260504033016 | 47 | 44 | 0.0 | 0.0 | 0.00 | 0.00 | 0.00 | 57 | 998.8 |
| 20260504031516 | 48 | 44 | 0.0 | 1.0 | 0.00 | 0.00 | 0.00 | 54 | 998.7 |
| 20260504030040 | 49 | 0.0 | 0.0 | 0.00 | 0.00 | 0.00 | 52 | 998.7 | |
| 20260504024517 | 49 | 44 | 0.0 | 0.0 | 0.00 | 0.00 | 0.00 | 53 | 998.7 |
| 20260504023017 | 49 | 45 | 0.0 | 1.0 | 0.00 | 0.00 | 0.00 | 53 | 998.7 |
| 20260504021521 | 49 | 44 | 0.0 | 0.0 | 0.00 | 0.00 | 0.00 | 53 | 998.5 |
| 20260504020017 | 49 | 50 | 0.0 | 0.0 | 0.00 | 0.00 | 0.00 | 53 | 998.5 |
| 20260504014517 | 49 | 179 | 0.0 | 1.0 | 0.00 | 0.00 | 0.00 | 53 | 998.4 |
| 20260504013017 | 49 | 46 | 0.0 | 1.0 | 0.00 | 0.00 | 0.00 | 53 | 998.3 |
| 20260504011519 | 50 | 44 | 0.0 | 0.0 | 0.00 | 0.00 | 0.00 | 52 | 998.2 |
| 20260504010017 | 51 | 0.0 | 0.0 | 0.00 | 0.00 | 0.00 | 50 | 998.1 | |
| 20260504004537 | 51 | 0.0 | 0.0 | 0.00 | 0.00 | 0.00 | 48 | 998.0 | |
| 20260504003037 | 53 | 268 | 0.0 | 0.0 | 0.00 | 0.00 | 0.00 | 46 | 997.8 |
| 20260504001517 | 54 | 291 | 0.0 | 0.0 | 0.00 | 0.00 | 0.00 | 43 | 997.7 |
| 20260504000017 | 55 | 313 | 0.0 | 0.0 | 0.00 | 0.00 | 0.00 | 41 | 997.5 |
| 20260503234517 | 56 | 85 | 0.0 | 1.0 | 0.00 | 0.00 | 0.00 | 40 | 997.4 |
| 20260503233017 | 57 | 55 | 0.0 | 4.0 | 0.00 | 0.00 | 0.00 | 39 | 997.3 |
| 20260503231516 | 57 | 35 | 0.0 | 2.0 | 0.00 | 0.00 | 0.00 | 38 | 997.0 |
| 20260503230016 | 58 | 355 | 1.0 | 4.0 | 0.00 | 0.00 | 0.00 | 37 | 997.0 |
| 20260503224516 | 58 | 52 | 1.0 | 7.0 | 0.00 | 0.00 | 0.00 | 37 | 997.0 |
| 20260503223016 | 59 | 31 | 1.0 | 6.0 | 0.00 | 0.00 | 0.00 | 36 | 997.0 |
| 20260503221517 | 59 | 34 | 1.0 | 5.0 | 0.00 | 0.00 | 0.00 | 36 | 997.1 |
| 20260503220017 | 60 | 27 | 1.0 | 4.0 | 0.00 | 0.00 | 0.00 | 35 | 997.1 |
| 20260503214517 | 61 | 27 | 1.0 | 7.0 | 0.00 | 0.00 | 0.00 | 35 | 997.2 |
| 20260503213037 | 61 | 58 | 1.0 | 4.0 | 0.00 | 0.00 | 0.00 | 34 | 997.2 |
| 20260503211517 | 61 | 2 | 1.0 | 5.0 | 0.00 | 0.00 | 0.00 | 34 | 997.1 |
| 20260503210017 | 61 | 15 | 1.0 | 6.0 | 0.00 | 0.00 | 0.00 | 34 | 997.2 |